sat.trackr.live / text

‹ back to catalog

YAOGAN-30 02A

NORAD 42945 · 2017-058A

PAYLOAD ACTIVE UNKNOWN

§ Identity

Operator
Country
PRC
Launch date
2017-09-29
Launch site
XICLF
Launch vehicle
Mass (kg)
RCS (m²)

External: N2YO · Heavens-Above · Gunter

§ Orbital elements

Epoch: 2026-09-10T05:03:09.624384Z

Period
95.78 min
Inclination
34.9967°
Eccentricity
0.0002321
Mean motion
15.03512022 rev/d
Perigee alt
554.5 km
Apogee alt
557.7 km
Semi-major
6,934.2 km
B*
1.6238e-4
RAAN
230.5559°
Arg perigee
195.4930°
Mean anomaly
164.5708°
Rev number
48,869

§ Raw data

YAOGAN-30 02A1 42945U 17058A   26253.21052806  .00002231  00000+0  16238-3 0  99972 42945  34.9967 230.5559 0002321 195.4930 164.5708 15.03512022488699

JSON: /api/v1/satellites/42945 · /tle

For live sub-satellite position, see the globe view (requires WebGL).

§ Visibility from observer

Set your observer location to see the next 7 days of passes ≥ 10°. The values pass through the URL so the page stays shareable.

No JS? Fill the form by hand. The geolocation button needs JavaScript.